Volver al catálogo

STARLINK-1724

ActivoComunicacionesVLEO
NORAD 46375·PAYLOAD·🇺🇸 United States

Lanzado Sep 3, 2020 desde Cape Canaveral Space Force Station

Loading…

Próximos Pases (próximas 24 horas)

TLE

ActualizadoSource: CelesTrak SupGP

Época: Sep 15, 2026, 00:43 UTC

1 46375C 20062BD  26258.03034722  .01081700  00000+0  10074-2 0  2587
2 46375  53.0063  65.4950 0010503 292.1126  90.1324 16.10782342    19

Sigue STARLINK-1724 en tiempo real con AllMySat

Download on the App Store